Snowfall_Accumulation
0.0 0.0 0.0 0.0 0.0 0.0 0.0 0.0 0.0 0.0 0.0 0.0 0.0 0.0 0.0 0.0 0.0 0.0 0.0 0.0 0.0 0.0
0.0 0.0 0.0 0.0 0.0 0.0 0.0 0.0 0.0 0.0 0.0 0.0 0.0 0.0 0.0 0.0 0.0 0.0 0.0 0.0 0.0 0.0
0.0 0.0 0.0 0.0 0.0 0.0 0.0 0.0 0.0 0.0 0.0 0.0 0.0 0.0 0.0 0.0 0.0 0.0 0.0 0.0 0.0 0.0
0.0 0.0 0.0 0.0 0.0 0.0 0.0 0.0 0.0 0.0 0.0 0.0 0.0 0.0 0.0 0.0 0.0 0.0 0.0 0.0 0.0 0.0
0.0 0.0 0.0 0.0 0.0 0.0 0.0 0.0 0.0 0.0 0.0 0.0 0.0 0.0 0.0 0.0 0.0 0.0 0.0 0.0 0.0 0.0
0.2 0.0 0.0 0.0 0.0 0.0 0.0 0.0 0.0 0.0 0.0 0.0 0.0 0.0 0.0 0.0 0.0 0.0 0.0 0.0 0.0 0.0
0.6 0.2 0.0 0.0 0.0 0.0 0.0 0.0 0.0 0.0 0.0 0.0 0.0 0.0 0.0 0.0 0.0 0.0 0.0 0.0 0.0 0.0
0.9 0.5 0.1 0.0 0.0 0.0 0.0 0.0 0.0 0.0 0.0 0.0 0.0 0.0 0.0 0.2 0.4 0.4 0.4 0.2 0.7 0.4
0.8 2.2 0.3 0.0 0.0 0.0 0.0 0.0 0.0 0.0 0.0 0.0 0.0 0.0 0.3 0.6 1.2 0.8 0.6 0.6 0.7 1.6
2.0 2.2 0.5 0.1 0.1 0.0 0.0 0.0 0.0 0.0 0.2 0.0 0.0 0.0 0.4 1.2 1.9 1.5 3.7 4.2 4.6 3.1
5.3 5.7 0.6 0.2 0.1 0.1 0.0 0.0 0.0 0.0 0.6 0.0 0.0 0.1 3.1 5.3 5.8 4.9 4.8 4.4 3.2 2.4
5.7 6.2 5.1 0.4 0.2 0.2 0.0 1.7 4.9 4.4 5.4 5.9 6.3 3.9 2.8 4.7 5.6 3.9 2.3 0.7 0.0 0.0
7.8 10.7 11.3 3.8 7.9 5.3 2.8 6.5 5.8 6.2 5.6 4.6 3.5 1.7 2.3 2.0 2.8 3.2 3.2 2.1 0.0 0.1
8.2 10.0 10.7 12.8 8.7 3.7 3.6 4.2 4.2 4.5 3.0 2.5 1.0 0.5 0.1 0.6 2.2 2.5 2.3 1.7 1.2 0.0